Location: Veytaux
(46.4185°N, 6.9320°E)
Time: 09:09:25
(UTC+00:00)

Thor Agena Rocket - Pass Details

Date: 27 May 2022
Orbit: 759 x 807 km, 99.0° (Epoch: 01 July)

Event Time Altitude Azimuth Distance (km) Brightness Sun altitude
Rises 01:14:17 0° 10° (N) 3,323 8.3 -18.3°
Reaches altitude 10° 01:16:39 10° 6° (N) 2,393 7.1 -18.1°
Maximum altitude 01:21:47 54° 291° (WNW) 981 4.0 -17.7°
Enters shadow 01:24:22 28° 228° (SW) 1,467 4.4 -17.5°
